Hourly Data Report for January 01, 2022

BANCROFT AUTO
ONTARIO
Current Station Operator: ECCC - MSC

45°04'17.000" N
77°52'44.000" W
330.70 m
616I001
71294
WRK

Download Data

Hourly Data (January 2022)
Hourly Data Report for January 1, 2022
TIME
LST
Temp Definition
°C
Dew Point Definition
°C
Rel Hum Definition
%
Precip. Amount Definition
mm

Wind Dir Definition
10's deg

Wind Spd Definition
km/h
Visibility Definition
km
Stn Press Definition
kPa
Hmdx Definition


Wind Chill Definition


Weather Definition


00:00 0.2 0.1 100 0.0 13 2   96.89     LegendNANA
01:00 0.2 0.2 100 0.0 11 3   96.79     LegendNANA
02:00 0.1 0.1 100 0.0 0 1   96.85     LegendNANA
03:00 0.4 0.4 100 0.0 15 2   96.77     LegendNANA
04:00 0.3 0.3 100 0.0   0   96.67     LegendNANA
05:00 0.1 0.1 100 0.0 19 1   96.62     LegendNANA
06:00 0.3 0.3 100 0.0 29 3   96.56     LegendNANA
07:00 0.4 0.3 100 0.0 29 3   96.62     LegendNANA
08:00 0.8 0.7 100 0.0 32 4   96.71     LegendNANA
09:00 1.0 0.9 99 0.1 32 1   96.73     LegendNANA
10:00 1.5 1.3 98 0.0 35 3   96.75     LegendNANA
11:00 1.7 0.7 94 0.0 36 7   96.81     LegendNANA
12:00 1.0 0.0 93 0.0 1 9   96.77     LegendNANA
13:00 0.7 -0.9 89 0.0 2 10   96.66     LegendNANA
14:00 0.2 -1.2 90 0.0 2 10   96.77     LegendNANA
15:00 -0.7 -1.9 91 0.1 1 12   96.84   -5 LegendNANA
16:00 -2.0 -3.9 87 0.0 1 10   96.87   -6 LegendNANA
17:00 -4.0 -6.2 85 0.0 1 16   96.96   -10 LegendNANA
18:00 -5.5 -8.2 81 0.0 35 15   97.03   -11 LegendNANA
19:00 -5.9 -9.2 77 0.0 36 11   97.08   -11 LegendNANA
20:00 -6.3 -9.7 77 0.0 35 8   97.13   -10 LegendNANA
21:00 -7.1 -10.8 75 0.0 2 11   97.13   -12 LegendNANA
22:00 -8.2 -11.4 78 0.0 1 11   97.07   -13 LegendNANA
23:00 -9.0 -12.2 78 0.0 1 14   97.10   -15 LegendNANA

Notes on Data Quality.

Legend

  • E = Estimated
  • M = Missing
  • NA = Not Available*
  • [empty] = Indicates an unobserved value
Date modified: